Weather in Suwayq

Oman     23°51′06″N   57°26′23″E
temp.,
°C
wind,
m/s
gust,
m/s
humid.,
%
clouds,
%
prec.,
mm/h
press.,
hPa
HPBL,
m
4 august, wed
wed401:00+33se11620 0.0 100082
04:00+32ene44670 0.0 1000124
07:00+32ene43710 0.0 1002315
10:00+37ne21470 0.0 1002684
13:00+38nne53421 0.0 1000730
16:00+39ene65405 0.0 999516
19:00+37ene224413 0.0 1000136
22:00+36ese224716 0.0 100036
5 august, thu
thu501:00+33nnw3358100 0.0 99956
04:00+33sse1153100 0.0 99911
07:00+35ene3344100 0.0 100092
10:00+39ene3235100 0.0 1000622
13:00+40ne6430100 0.0 998678
16:00+39ne6633100 0.0 997533
19:00+36e35455 0.0 998160
22:00+35s11431 0.0 99812
6 august, fri
fri601:00+33nw33502 0.0 99730
04:00+32ene335828 0.0 99727
07:00+33ese225579 0.0 99999
10:00+40nne32310 0.0 999572
13:00+41nne642944 0.0 997640
16:00+40ene562896 0.0 996550
19:00+37e44409 0.0 997114
22:00+36ene114172 0.0 99715
7 august, sat
sat701:00+37sw223011 0.0 99611
04:00+32nne446338 0.0 99762
07:00+33ene226669 0.0 999150
10:00+40ene22295 0.0 1000730
13:00+42ne75240 0.0 998908
16:00+39ene783429 0.0 997446
19:00+38e563191 0.0 998223
22:00+36e113551 0.0 99913
8 august, sun
sun801:00+35n564416 0.0 99888
04:00+31ene22760 0.0 999133
07:00+33ssw33610 0.0 1001163
10:00+40nne22260 0.0 1001712
13:00+41nne65230 0.0 1000749
16:00+41ene55230 0.0 999593
19:00+38ese33290 0.0 99946
22:00+39ssw33180 0.0 99912